Tracking 19847 objects as of 16-Sep-2019
HD Live streaming from Space Station
objects crossing your sky now

SL-8 DEB

Track SL-8 DEB now!
10-day predictions


NORAD ID: 29285
Int'l Code: 1981-120P
Perigee: 1,591.7 km
Apogee: 1,666.2 km
Inclination: 83.0 °
Period: 118.7 minutes
Semi major axis: 7999 km
RCS: 0.0058 m2 (small)
Launch date: December 17, 1981
Source: Commonwealth of Independent States (former USSR) (CIS)
Launch site: PLESETSK MISSILE AND SPACE COMPLEX (PKMTR)

Note: This is SATELLITE DEBRIS
aabbcc
Your satellite tracking list
Your tracking list is empty




NASA's NSSDC Master Catalog

Two Line Element Set (TLE):
1 29285U 81120P   19250.72789420 -.00000015  00000-0 -25503-3 0  9990
2 29285  82.9542 232.9696 0046537 212.2664 266.2991 12.13315816666591
Source of the keplerian elements: AFSPC